Date,TemperatureHighF,TemperatureAvgF,TemperatureLowF,DewpointHighF,DewpointAvgF,DewpointLowF,HumidityHigh,HumidityAvg,HumidityLow,PressureMaxIn,PressureMinIn,WindSpeedMaxMPH,WindSpeedAvgMPH,GustSpeedMaxMPH,PrecipitationSumIn
2013-12-1,48,39,33,41,35,29,93,84,68,30.39,30.03,4,1,7,0.00
2013-12-2,48,37,30,43,35,29,96,91,81,30.03,29.91,4,0,7,0.00
2013-12-3,51,36,28,42,32,26,96,87,62,30.03,29.88,5,0,7,0.00
2013-12-4,51,39,28,41,35,27,96,87,65,30.16,30.02,3,0,4,0.01
2013-12-5,56,52,42,56,50,40,97,95,92,30.15,29.96,5,1,8,0.05
2013-12-6,56,46,36,55,46,35,97,96,95,30.16,29.90,10,4,18,0.50
2013-12-7,41,35,30,36,31,22,96,86,65,30.52,30.10,9,4,14,0.13
2013-12-8,33,29,24,29,23,20,92,79,64,30.61,30.41,6,2,10,0.00
2013-12-9,40,36,31,39,35,29,96,95,92,30.40,29.96,7,4,11,0.29
2013-12-10,34,32,27,34,31,23,100,95,83,30.13,29.85,8,3,14,0.07
2013-12-11,33,29,26,22,20,18,82,69,56,30.33,30.13,10,5,18,0.05
2013-12-12,28,24,18,19,12,8,78,62,48,30.36,30.18,11,5,15,0.00
2013-12-13,34,28,22,21,16,9,82,62,52,30.35,30.14,11,5,25,0.00
2013-12-14,34,26,24,33,23,19,95,87,75,30.52,29.84,10,5,17,0.00
2013-12-15,41,35,31,40,31,23,97,87,69,29.86,29.49,11,6,14,1.29
2013-12-16,32,26,16,25,16,12,88,65,50,30.25,29.84,10,5,18,0.00
2013-12-17,32,25,15,30,22,12,92,89,78,30.25,29.94,7,2,11,0.00
2013-12-18,36,28,20,27,23,17,92,81,66,30.18,29.93,10,3,18,0.12
2013-12-19,45,34,22,32,27,19,90,76,55,30.20,30.04,8,2,11,0.07
2013-12-20,50,40,30,39,34,28,94,80,57,30.13,29.98,6,1,9,0.00
2013-12-21,59,49,40,53,46,37,100,90,74,30.03,29.92,7,2,15,0.01
2013-12-22,65,58,54,60,56,51,97,90,80,29.99,29.83,9,4,18,0.01
2013-12-23,58,52,40,57,51,39,97,95,92,30.15,29.88,9,2,13,0.48
2013-12-24,40,35,27,39,28,16,95,77,62,30.34,30.10,13,5,21,0.01
2013-12-25,28,24,18,17,13,10,72,62,51,30.54,30.34,13,4,16,0.00
2013-12-26,36,29,24,28,23,16,92,78,66,30.45,30.17,7,1,11,0.00
2013-12-27,41,30,22,25,23,20,91,76,46,30.38,30.27,8,2,16,0.00
2013-12-28,53,39,26,32,29,23,89,69,44,30.31,30.08,10,3,22,0.00
2013-12-29,46,40,34,44,37,29,95,87,71,30.09,29.38,9,2,12,1.42
2013-12-30,41,33,23,40,28,14,97,82,62,30.20,29.69,11,4,19,0.00
2013-12-31,32,26,18,24,16,12,79,68,58,30.29,30.08,9,3,17,0.00